[[{"header":{"parameterUnit":"m.s-1","parameterCategory":1,"la1":30.2991,"la2":30.254,"lo1":-89.0895,"lo2":-89.0444,"dy":0.0017,"dx":0.0017,"nx":28,"ny":28,"refTime":"2025-07-27T09:00:00:Z","depth":0,"parameterNumber":2,"parameterNumberName":"U-component_of_WINDS"},"data":[0,0,0,0,0,0,0,0,0,0,0,0,0,0,0,0,0,0,0,0,0,0,0,0,0,0,0,0,0,0,0,0,0,0,0,0,0,0,0,0,0,0,0,0,0,0,0,0,0,0,0,0,0,0,0,0,0,0,-0.5759,-0.5759,0,-0.5723,-0.5722,-0.5722,-0.57,-0.57,-0.57,-0.57,-0.5662,-0.5661,-0.566,0,0,0,0,0,0,0,0,0,0,0,0,0,-0.5808,-0.5807,-0.5759,-0.5759,-0.5758,-0.5723,-0.5722,-0.5722,-0.57,-0.57,-0.57,-0.57,-0.5662,-0.5661,-0.566,0,0,0,0,0,0,0,0,0,0,0,0,0,-0.5781,-0.5807,-0.5759,-0.5743,-0.5741,-0.5723,-0.5722,-0.5722,-0.57,-0.57,-0.57,-0.57,-0.5662,-0.5661,-0.566,-0.5654,0,0,-0.5655,-0.5655,0,0,0,0,0,0,0,0,-0.5782,-0.5779,-0.5746,-0.5744,-0.5742,-0.5716,-0.5725,-0.5699,-0.57,-0.5716,-0.57,-0.57,-0.568,-0.5677,-0.567,-0.5652,-0.565,-0.5655,-0.5654,-0.5654,-0.5653,0,0,0,0,0,0,0,-0.5784,-0.578,-0.5745,-0.5745,-0.5743,-0.5737,-0.5733,-0.572,-0.5699,-0.5714,-0.5713,-0.5709,-0.5679,-0.5672,-0.5669,-0.565,-0.5655,-0.5654,-0.5653,-0.5653,-0.5624,-0.5624,0,0,0,0,0,0,-0.5789,-0.5782,-0.5746,-0.5743,-0.5762,-0.5736,-0.5732,-0.5724,-0.5699,-0.5695,-0.5709,-0.5708,-0.5674,-0.5671,-0.5668,-0.5659,-0.5654,-0.5652,-0.5652,-0.5624,-0.5624,-0.5624,0,0,0,0,0,0,-0.579,-0.5786,-0.5747,-0.5762,-0.5757,-0.5736,-0.5727,-0.5724,-0.5717,-0.5695,-0.5691,-0.5706,-0.5674,-0.567,-0.5657,-0.5657,-0.5652,-0.5651,-0.5623,-0.5624,-0.5624,-0.5641,0,0,0,0,0,0,-0.5791,-0.5786,-0.5784,-0.5762,-0.5756,-0.5738,-0.5727,-0.5723,-0.5715,-0.5713,-0.5691,-0.5687,-0.5674,-0.5659,-0.5656,-0.5655,-0.5649,-0.5623,-0.5624,-0.5624,-0.564,-0.5642,-0.5643,0,0,0,0,0,-0.5793,-0.5791,-0.5784,-0.578,-0.5753,-0.5738,-0.5734,-0.5719,-0.5715,-0.5712,-0.5698,-0.5688,-0.5658,-0.5658,-0.5654,-0.5653,-0.5623,-0.5623,-0.5624,-0.564,-0.5641,-0.5643,0,0,0,0,0,0,-0.5813,-0.5788,-0.578,-0.5771,-0.5757,-0.5734,-0.5731,-0.5721,-0.5708,-0.5707,-0.5688,-0.5683,-0.5672,-0.5661,-0.5662,-0.5645,-0.5639,-0.5639,-0.5653,-0.5654,-0.5656,-0.5658,-0.5648,0,0,0,0,0,-0.5816,-0.5806,-0.5784,-0.5778,-0.5771,-0.5752,-0.5745,-0.5734,-0.5719,-0.5713,-0.5698,-0.5683,-0.5669,-0.5661,-0.5648,-0.5639,-0.5633,-0.5635,-0.5637,-0.5638,-0.5637,-0.563,-0.5631,-0.5624,-0.5624,-0.5624,0,0,-0.5823,-0.5808,-0.5803,-0.5782,-0.577,-0.5759,-0.5748,-0.5737,-0.5729,-0.5711,-0.5698,-0.5686,-0.5668,-0.5657,-0.5651,-0.5647,-0.5638,-0.5638,-0.5639,-0.5638,-0.5631,-0.5631,-0.5632,-0.5624,-0.5624,-0.5624,0,0,-0.583,-0.5818,-0.5811,-0.5799,-0.578,-0.5767,-0.5766,-0.5745,-0.5736,-0.5723,-0.5709,-0.5699,-0.5677,-0.5664,-0.5655,-0.5656,-0.5646,-0.5652,-0.5658,-0.5652,-0.5652,-0.5653,-0.5652,-0.5652,-0.5651,-0.5652,-0.5652,0,-0.584,-0.5824,-0.5808,-0.5798,-0.5789,-0.5772,-0.5764,-0.5753,-0.5732,-0.5725,-0.5722,-0.5693,-0.568,-0.5665,-0.5665,-0.5658,-0.5655,-0.5654,-0.5654,-0.5654,-0.5654,-0.5653,-0.5653,-0.5652,-0.5652,-0.5652,-0.5652,0,-0.5838,-0.5827,-0.5823,-0.5803,-0.5793,-0.5784,-0.5766,-0.5758,-0.5748,-0.5735,-0.5721,-0.5704,-0.5687,-0.5683,-0.5673,-0.5666,-0.5664,-0.5657,-0.5651,-0.5656,-0.5655,-0.5654,-0.5654,-0.5653,-0.5653,-0.5653,0,0,-0.5857,-0.5827,-0.5826,-0.5816,-0.5794,-0.5784,-0.5774,-0.5758,-0.5751,-0.5736,-0.5727,-0.5708,-0.5701,-0.5691,-0.5679,-0.5673,-0.5674,-0.5667,-0.5666,-0.5668,-0.5664,-0.5669,-0.567,-0.5667,-0.5667,-0.5667,-0.5666,0,-0.586,-0.5842,-0.5826,-0.5813,-0.5802,-0.5786,-0.5777,-0.5762,-0.575,-0.5738,-0.5724,-0.5711,-0.5703,-0.5697,-0.569,-0.5675,-0.5673,-0.5675,-0.5657,-0.5657,-0.5662,-0.5669,-0.5675,-0.5674,-0.5665,-0.5665,-0.5665,0,-0.5861,-0.5847,-0.5833,-0.5811,-0.5806,-0.5799,-0.5781,-0.5771,-0.5753,-0.5744,-0.5732,-0.572,-0.5708,-0.5702,-0.5685,-0.5686,-0.5678,-0.567,-0.5669,-0.5667,-0.5661,-0.5666,-0.5674,-0.5674,-0.5664,-0.5665,-0.5665,0,-0.5876,-0.5853,-0.5841,-0.5833,-0.5808,-0.5803,-0.5792,-0.5774,-0.5765,-0.575,-0.5743,-0.5727,-0.5718,-0.5705,-0.5688,-0.5686,-0.5672,-0.5665,-0.5663,-0.5664,-0.5661,-0.5662,-0.5667,-0.5656,-0.5656,-0.5656,-0.5656,0,-0.5881,-0.5873,-0.5847,-0.584,-0.583,-0.5812,-0.5803,-0.579,-0.5775,-0.5764,-0.5749,-0.5739,-0.5718,-0.5705,-0.5692,-0.5679,-0.5675,-0.5667,-0.5663,-0.5668,-0.5669,-0.5662,-0.5662,-0.5656,-0.5656,-0.5656,-0.5656,0,-0.5895,-0.5878,-0.5864,-0.5841,-0.5835,-0.5829,-0.5808,-0.58,-0.5787,-0.5774,-0.577,-0.5748,-0.5733,-0.5715,-0.5693,-0.5684,-0.5672,-0.5667,-0.5678,-0.5676,-0.5675,-0.5675,-0.5676,-0.5675,-0.5666,-0.5666,-0.5666,0,-0.5899,-0.5893,-0.5869,-0.5861,-0.585,-0.5837,-0.5828,-0.5809,-0.5799,-0.5778,-0.5773,-0.5756,-0.5742,-0.5717,-0.57,-0.5683,-0.5677,-0.5679,-0.5674,-0.5679,-0.5676,-0.5677,-0.5676,-0.568,-0.568,-0.568,-0.568,0,-0.5908,-0.59,-0.5887,-0.587,-0.5859,-0.5845,-0.583,-0.5824,-0.5803,-0.5792,-0.5776,-0.5765,-0.5743,-0.5726,-0.5707,-0.5695,-0.5684,-0.5682,-0.568,-0.5685,-0.5691,-0.5687,-0.5681,-0.5682,-0.5682,-0.5681,-0.5681,-0.5681,-0.5917,-0.591,-0.5892,-0.5877,-0.5864,-0.5851,-0.5842,-0.5827,-0.5813,-0.5794,-0.5784,-0.5768,-0.5749,-0.5722,-0.5711,-0.5697,-0.5693,-0.5692,-0.5691,-0.5691,-0.5692,-0.5694,-0.5694,-0.5694,-0.5694,-0.5694,-0.5693,0,-0.5925,-0.5912,-0.5899,-0.5879,-0.5867,-0.5857,-0.584,-0.5831,-0.5817,-0.5801,-0.5787,-0.5768,-0.5752,-0.5732,-0.5714,-0.5707,-0.5702,-0.5703,-0.5703,-0.5701,-0.5697,-0.5699,-0.5708,-0.5708,-0.5708,-0.5708,-0.5708,-0.5708,-0.5927,-0.5915,-0.5904,-0.5884,-0.5871,-0.5856,-0.5847,-0.5834,-0.5821,-0.5801,-0.5787,-0.5774,-0.5757,-0.5737,-0.5721,-0.5716,-0.571,-0.5713,-0.5706,-0.5702,-0.5701,-0.57,-0.5702,-0.5712,-0.5712,-0.5711,-0.5711,-0.5711]},{"header":{"parameterUnit":"m.s-1","parameterCategory":1,"la1":30.2991,"la2":30.254,"lo1":-89.0895,"lo2":-89.0444,"dy":0.0017,"dx":0.0017,"nx":28,"ny":28,"refTime":"2025-07-27T09:00:00:Z","depth":0,"parameterNumber":3,"parameterNumberName":"V-component_of_WINDS"},"data":[0,0,0,0,0,0,0,0,0,0,0,0,0,0,0,0,0,0,0,0,0,0,0,0,0,0,0,0,0,0,0,0,0,0,0,0,0,0,0,0,0,0,0,0,0,0,0,0,0,0,0,0,0,0,0,0,0,0,0.6045,0.6044,0,0.5981,0.598,0.5979,0.5949,0.5949,0.5949,0.5949,0.5881,0.5879,0.5877,0,0,0,0,0,0,0,0,0,0,0,0,0,0.6141,0.6139,0.6045,0.6044,0.6043,0.5981,0.598,0.5979,0.5949,0.5949,0.5949,0.5949,0.5881,0.5879,0.5877,0,0,0,0,0,0,0,0,0,0,0,0,0,0.609,0.6139,0.6045,0.6021,0.6018,0.5981,0.598,0.5979,0.5949,0.5949,0.5949,0.5949,0.5882,0.5879,0.5877,0.5858,0,0,0.5868,0.5867,0,0,0,0,0,0,0,0,0.6093,0.6086,0.6025,0.6023,0.6019,0.5973,0.5988,0.5938,0.5949,0.5975,0.5949,0.5949,0.5911,0.5906,0.5894,0.5855,0.5852,0.5868,0.5866,0.5865,0.5864,0,0,0,0,0,0,0,0.6096,0.6089,0.6019,0.6024,0.6021,0.6013,0.6006,0.5979,0.5943,0.5973,0.597,0.5963,0.591,0.5896,0.5892,0.5851,0.5868,0.5865,0.5864,0.5863,0.5794,0.5794,0,0,0,0,0,0,0.6104,0.6092,0.6021,0.6017,0.6057,0.6011,0.6003,0.5988,0.5944,0.5937,0.5963,0.5962,0.5901,0.5895,0.5889,0.5865,0.5865,0.5862,0.5861,0.5794,0.5794,0.5794,0,0,0,0,0,0,0.6106,0.6098,0.6024,0.6054,0.6044,0.6009,0.5992,0.5986,0.5973,0.5937,0.593,0.5957,0.5901,0.5893,0.5866,0.5862,0.5861,0.5859,0.5794,0.5794,0.5794,0.5816,0,0,0,0,0,0,0.6109,0.6099,0.6092,0.6054,0.6043,0.6002,0.5992,0.5985,0.5969,0.5967,0.5928,0.5922,0.59,0.5871,0.5864,0.5858,0.5856,0.5794,0.5794,0.5794,0.5815,0.5816,0.5817,0,0,0,0,0,0.6113,0.61,0.6092,0.6083,0.6033,0.6002,0.5996,0.5972,0.5969,0.5961,0.5937,0.5923,0.5864,0.5868,0.586,0.5854,0.5795,0.5794,0.5794,0.5815,0.5816,0.5817,0,0,0,0,0,0,0.6136,0.6094,0.6085,0.6059,0.6035,0.5997,0.5987,0.5974,0.5949,0.5947,0.5918,0.591,0.5886,0.5867,0.5872,0.5834,0.5828,0.5826,0.5847,0.5847,0.5848,0.5853,0.5854,0,0,0,0,0,0.6139,0.6118,0.6082,0.6063,0.6052,0.6022,0.6007,0.5991,0.5964,0.5953,0.5928,0.5901,0.5877,0.5861,0.5836,0.5813,0.5804,0.5804,0.5805,0.5806,0.5805,0.5791,0.5791,0.5793,0.5793,0.5793,0,0,0.6143,0.6118,0.6106,0.6068,0.6047,0.6025,0.6013,0.5991,0.5974,0.5949,0.5923,0.5903,0.5872,0.5847,0.5834,0.583,0.5803,0.5806,0.5807,0.5805,0.5791,0.5791,0.5791,0.5792,0.5792,0.5792,0,0,0.6141,0.612,0.6102,0.6081,0.605,0.6031,0.6027,0.5991,0.5978,0.5951,0.5932,0.5912,0.587,0.5849,0.5833,0.5824,0.581,0.5817,0.5821,0.5809,0.5808,0.5808,0.5805,0.5804,0.5815,0.5815,0.5815,0,0.615,0.6118,0.6094,0.6073,0.6057,0.6035,0.6017,0.5998,0.596,0.5949,0.5945,0.5893,0.5871,0.584,0.5838,0.5826,0.582,0.582,0.5811,0.581,0.5809,0.5806,0.5805,0.5816,0.5816,0.5816,0.5816,0,0.6131,0.6109,0.6098,0.6064,0.6046,0.6027,0.6,0.5985,0.5971,0.5951,0.5924,0.5897,0.5866,0.5858,0.5843,0.5826,0.5825,0.5816,0.581,0.5811,0.5807,0.5806,0.5818,0.5817,0.5817,0.5817,0,0,0.614,0.6094,0.609,0.6074,0.6039,0.6022,0.6001,0.5973,0.5961,0.5936,0.5918,0.5884,0.5876,0.5858,0.5841,0.583,0.5825,0.5823,0.5822,0.5824,0.5804,0.5811,0.5809,0.5816,0.5816,0.5816,0.5807,0,0.6132,0.6096,0.6075,0.6047,0.6026,0.6006,0.5988,0.5965,0.5946,0.5926,0.5905,0.5882,0.5874,0.5863,0.5851,0.5828,0.5821,0.5829,0.5799,0.5798,0.5807,0.5807,0.5814,0.5807,0.5805,0.5805,0.5805,0,0.6118,0.6095,0.6065,0.6034,0.6024,0.6009,0.5981,0.5962,0.5935,0.5923,0.5903,0.5887,0.5865,0.5861,0.583,0.5836,0.5823,0.581,0.5809,0.5805,0.5801,0.5803,0.5804,0.5803,0.5802,0.5803,0.5803,0,0.6128,0.6089,0.6067,0.6054,0.6016,0.6006,0.5989,0.5963,0.5947,0.5923,0.5913,0.5886,0.5872,0.5852,0.5828,0.5828,0.58,0.5794,0.5788,0.5789,0.5783,0.5783,0.5781,0.5775,0.5775,0.5775,0.5775,0,0.6121,0.6104,0.6071,0.6057,0.6037,0.6013,0.5993,0.5975,0.5952,0.5934,0.5915,0.5898,0.5869,0.5848,0.583,0.5807,0.5801,0.579,0.5785,0.5791,0.5793,0.5782,0.5781,0.5775,0.5775,0.5775,0.5775,0,0.6128,0.6105,0.6079,0.6046,0.6038,0.6025,0.5996,0.5982,0.5963,0.5941,0.5934,0.5905,0.588,0.5855,0.5821,0.5809,0.5787,0.578,0.5796,0.5793,0.5789,0.579,0.578,0.5777,0.5773,0.5773,0.5773,0,0.6125,0.6112,0.6078,0.6065,0.6049,0.6029,0.6013,0.5989,0.5974,0.5943,0.5932,0.5907,0.5884,0.5846,0.5821,0.5796,0.5788,0.5787,0.5784,0.5791,0.5788,0.5789,0.5788,0.5787,0.5787,0.5788,0.5788,0,0.6122,0.6112,0.6091,0.6066,0.6049,0.6028,0.6006,0.5997,0.5968,0.5952,0.5927,0.591,0.5877,0.5852,0.5823,0.5806,0.5792,0.5789,0.5786,0.5792,0.5802,0.5797,0.5798,0.5789,0.5789,0.5789,0.5789,0.5789,0.6124,0.6111,0.6086,0.6063,0.6045,0.6025,0.6011,0.5991,0.597,0.5941,0.5929,0.5904,0.5878,0.5839,0.5822,0.5802,0.5798,0.5794,0.5793,0.5792,0.5794,0.5806,0.5797,0.5797,0.5797,0.5796,0.5796,0,0.612,0.6103,0.6083,0.6054,0.6036,0.6026,0.6002,0.5987,0.5966,0.5944,0.5923,0.5895,0.587,0.5845,0.5819,0.5808,0.5801,0.5802,0.5802,0.5798,0.5799,0.5804,0.5808,0.5808,0.5808,0.5808,0.5808,0.5808,0.6116,0.6094,0.6081,0.605,0.6033,0.6009,0.5996,0.5978,0.596,0.593,0.591,0.5894,0.587,0.5843,0.582,0.5813,0.5804,0.5807,0.5798,0.5799,0.5798,0.5797,0.5802,0.5805,0.5805,0.5799,0.5799,0.5799]}]]